Location: Newark
(7.0858°N, 171.3717°E)
Time: 04:20:50
(UTC+00:00)

A-11 Canister half - Pass Details

Date: 11 December 2020
Orbit: 1517 x 1683 km, 47.2° (Epoch: 16 January)

Event Time Altitude Azimuth Distance (km) Brightness Sun altitude
Rises 06:38:04 0° 301° (WNW) 4,928 12.2 -5.1°
Reaches altitude 10° 06:41:39 10° 292° (WNW) 3,938 11.9 -5.9°
Maximum altitude 06:50:22 34° 232° (SW) 2,518 11.0 -7.9°
Drops below altitude 10° 06:59:00 10° 171° (S) 3,874 11.3 -9.9°
Sets 07:02:34 0° 162° (SSE) 4,838 11.7 -10.7°
